| time (UTC) | temp C | wind direction | speed KPH | gust KPH | rain 1hr cm | rain 24hr cm | rain mn cm | humidity % | barometer mb |
| 20260901173035 | 17 | 218 | 8.0 | 17.7 | 0.00 | 0.00 | 0.00 | 75 | 1011.8 |
| 20260901172532 | 17 | 200 | 8.0 | 17.7 | 0.00 | 0.00 | 0.00 | 76 | 1011.8 |
| 20260901172031 | 16 | 189 | 11.3 | 17.7 | 0.00 | 0.00 | 0.00 | 77 | 1011.8 |
| 20260901171531 | 16 | 220 | 11.3 | 17.7 | 0.00 | 0.00 | 0.00 | 78 | 1011.8 |
| 20260901171030 | 16 | 193 | 12.9 | 19.3 | 0.00 | 0.00 | 0.00 | 79 | 1011.9 |
| 20260901170530 | 16 | 214 | 12.9 | 24.1 | 0.00 | 0.00 | 0.00 | 80 | 1011.9 |
| 20260901170031 | 16 | 205 | 11.3 | 24.1 | 0.00 | 0.00 | 0.00 | 80 | 1011.8 |
| 20260901165530 | 16 | 196 | 9.7 | 16.1 | 0.00 | 0.00 | 0.00 | 80 | 1011.8 |
| 20260901165030 | 16 | 145 | 8.0 | 16.1 | 0.00 | 0.00 | 0.00 | 80 | 1011.8 |
| 20260901164530 | 16 | 196 | 8.0 | 16.1 | 0.00 | 0.00 | 0.00 | 80 | 1011.7 |
| 20260901164301 | 16 | 206 | 6.4 | 12.9 | 0.00 | 0.00 | 0.00 | 80 | 1011.7 |
| 20260901163530 | 16 | 192 | 6.4 | 14.5 | 0.00 | 0.00 | 0.00 | 80 | 1011.7 |
| 20260901163031 | 16 | 201 | 8.0 | 16.1 | 0.00 | 0.00 | 0.00 | 81 | 1011.7 |
| 20260901162530 | 16 | 189 | 6.4 | 16.1 | 0.00 | 0.00 | 0.00 | 82 | 1011.8 |
| 20260901162031 | 16 | 189 | 6.4 | 12.9 | 0.00 | 0.00 | 0.00 | 82 | 1011.8 |
| 20260901161530 | 16 | 203 | 6.4 | 12.9 | 0.00 | 0.00 | 0.00 | 82 | 1011.9 |
| 20260901161030 | 16 | 183 | 8.0 | 16.1 | 0.00 | 0.00 | 0.00 | 82 | 1011.9 |
| 20260901160530 | 16 | 153 | 8.0 | 16.1 | 0.00 | 0.00 | 0.00 | 82 | 1011.9 |
| 20260901160030 | 16 | 182 | 8.0 | 14.5 | 0.00 | 0.00 | 0.00 | 82 | 1011.9 |
| 20260901155756 | 15 | 141 | 6.4 | 14.5 | 0.00 | 0.00 | 0.00 | 82 | 1012.0 |
| 20260901155030 | 15 | 185 | 6.4 | 12.9 | 0.00 | 0.00 | 0.00 | 82 | 1012.0 |
| 20260901154531 | 15 | 178 | 8.0 | 12.9 | 0.00 | 0.00 | 0.00 | 82 | 1011.9 |
| 20260901154031 | 15 | 179 | 8.0 | 12.9 | 0.00 | 0.00 | 0.00 | 82 | 1011.9 |
| 20260901153530 | 15 | 180 | 6.4 | 12.9 | 0.00 | 0.00 | 0.00 | 83 | 1012.0 |
| 20260901153025 | 15 | 145 | 4.8 | 11.3 | 0.00 | 0.00 | 0.00 | 83 | 1011.9 |
| 20260901152523 | 15 | 170 | 3.2 | 9.7 | 0.00 | 0.00 | 0.00 | 83 | 1011.9 |
| 20260901152022 | 15 | 191 | 3.2 | 4.8 | 0.00 | 0.00 | 0.00 | 84 | 1011.8 |
| 20260901151738 | 15 | 174 | 3.2 | 6.4 | 0.00 | 0.00 | 0.00 | 84 | 1011.9 |
| 20260901151019 | 15 | 216 | 3.2 | 9.7 | 0.00 | 0.00 | 0.00 | 84 | 1011.8 |
| 20260901150733 | 15 | 186 | 4.8 | 9.7 | 0.00 | 0.00 | 0.00 | 85 | 1011.8 |
| 20260901150009 | 15 | 215 | 4.8 | 8.0 | 0.00 | 0.00 | 0.00 | 85 | 1011.8 |
| 20260901145510 | 15 | 254 | 4.8 | 9.7 | 0.00 | 0.00 | 0.00 | 85 | 1011.7 |
| 20260901145008 | 15 | 201 | 4.8 | 9.7 | 0.00 | 0.00 | 0.00 | 85 | 1011.7 |
| 20260901144504 | 15 | 232 | 4.8 | 6.4 | 0.00 | 0.00 | 0.00 | 85 | 1011.6 |
| 20260901144005 | 15 | 221 | 3.2 | 6.4 | 0.00 | 0.00 | 0.00 | 85 | 1011.7 |
| 20260901143947 | 15 | 222 | 4.8 | 6.4 | 0.00 | 0.00 | 0.00 | 86 | 1011.6 |
| 20260901142958 | 15 | 252 | 4.8 | 9.7 | 0.00 | 0.00 | 0.00 | 86 | 1011.5 |
| 20260901142458 | 15 | 237 | 4.8 | 9.7 | 0.00 | 0.00 | 0.00 | 85 | 1011.4 |
| 20260901141959 | 15 | 239 | 3.2 | 9.7 | 0.00 | 0.00 | 0.00 | 85 | 1011.5 |
| 20260901141455 | 15 | 171 | 4.8 | 11.3 | 0.00 | 0.00 | 0.00 | 85 | 1011.5 |
| 20260901140955 | 15 | 253 | 4.8 | 11.3 | 0.00 | 0.00 | 0.00 | 86 | 1011.4 |
| 20260901140452 | 15 | 189 | 4.8 | 11.3 | 0.00 | 0.00 | 0.00 | 85 | 1011.4 |
| 20260901135953 | 15 | 216 | 4.8 | 9.7 | 0.00 | 0.00 | 0.00 | 85 | 1011.5 |
| 20260901135456 | 15 | 179 | 3.2 | 9.7 | 0.00 | 0.00 | 0.00 | 85 | 1011.4 |
| 20260901134951 | 15 | 195 | 1.6 | 6.4 | 0.00 | 0.00 | 0.00 | 85 | 1011.4 |
| 20260901134453 | 15 | 239 | 0.0 | 3.2 | 0.00 | 0.00 | 0.00 | 86 | 1011.4 |
| 20260901134444 | 15 | 240 | 0.0 | 0.0 | 0.00 | 0.00 | 0.00 | 86 | 1011.3 |
| 20260901133448 | 15 | 239 | 0.0 | 0.0 | 0.00 | 0.00 | 0.00 | 86 | 1011.3 |
| 20260901132951 | 15 | 239 | 0.0 | 3.2 | 0.00 | 0.00 | 0.00 | 86 | 1011.3 |
| 20260901132441 | 15 | 239 | 1.6 | 3.2 | 0.00 | 0.00 | 0.00 | 86 | 1011.3 |
| 20260901132205 | 15 | 239 | 1.6 | 3.2 | 0.00 | 0.00 | 0.00 | 85 | 1011.2 |
| 20260901131440 | 15 | 239 | 3.2 | 6.4 | 0.00 | 0.00 | 0.00 | 86 | 1011.2 |
| 20260901130939 | 15 | 239 | 3.2 | 6.4 | 0.00 | 0.00 | 0.00 | 84 | 1011.3 |
| 20260901130438 | 15 | 219 | 3.2 | 8.0 | 0.00 | 0.00 | 0.00 | 84 | 1011.3 |
| 20260901125939 | 15 | 219 | 4.8 | 8.0 | 0.00 | 0.00 | 0.00 | 84 | 1011.3 |
| 20260901125436 | 15 | 247 | 4.8 | 8.0 | 0.00 | 0.00 | 0.00 | 83 | 1011.2 |
| 20260901125156 | 15 | 253 | 3.2 | 6.4 | 0.00 | 0.00 | 0.00 | 83 | 1011.2 |
| 20260901124432 | 15 | 253 | 1.6 | 6.4 | 0.00 | 0.00 | 0.00 | 83 | 1011.3 |
| 20260901123933 | 15 | 233 | 0.0 | 3.2 | 0.00 | 0.00 | 0.00 | 83 | 1011.1 |
| 20260901123430 | 15 | 233 | 0.0 | 3.2 | 0.00 | 0.00 | 0.00 | 83 | 1011.1 |
| 20260901122927 | 15 | 233 | 1.6 | 3.2 | 0.00 | 0.00 | 0.00 | 83 | 1011.1 |
| 20260901122414 | 15 | 233 | 1.6 | 6.4 | 0.00 | 0.00 | 0.00 | 82 | 1011.1 |
| 20260901121916 | 15 | 233 | 1.6 | 6.4 | 0.00 | 0.00 | 0.00 | 83 | 1011.1 |
| 20260901121412 | 15 | 204 | 1.6 | 4.8 | 0.00 | 0.00 | 0.00 | 82 | 1011.2 |
| 20260901120912 | 15 | 204 | 1.6 | 4.8 | 0.00 | 0.00 | 0.00 | 82 | 1011.1 |
| 20260901120413 | 15 | 204 | 1.6 | 4.8 | 0.00 | 0.00 | 0.00 | 82 | 1011.1 |
| 20260901115904 | 15 | 204 | 1.6 | 4.8 | 0.00 | 0.00 | 0.00 | 82 | 1011.2 |
| 20260901115630 | 15 | 204 | 1.6 | 4.8 | 0.00 | 0.00 | 0.00 | 83 | 1011.1 |
| 20260901114858 | 15 | 204 | 1.6 | 4.8 | 0.00 | 0.00 | 0.00 | 82 | 1011.1 |
| 20260901114350 | 15 | 204 | 3.2 | 9.7 | 0.00 | 0.00 | 0.00 | 82 | 1011.2 |
| 20260901113849 | 15 | 185 | 3.2 | 9.7 | 0.00 | 0.00 | 0.00 | 82 | 1011.1 |
| 20260901113613 | 15 | 194 | 3.2 | 6.4 | 0.00 | 0.00 | 0.00 | 82 | 1011.1 |
| 20260901113108 | 15 | 203 | 3.2 | 6.4 | 0.00 | 0.00 | 0.00 | 83 | 1011.1 |
| 20260901112347 | 15 | 216 | 3.2 | 9.7 | 0.00 | 0.00 | 0.00 | 84 | 1011.1 |
| 20260901111846 | 15 | 232 | 3.2 | 12.9 | 0.00 | 0.00 | 0.00 | 85 | 1011.1 |
| 20260901111347 | 15 | 245 | 3.2 | 12.9 | 0.00 | 0.00 | 0.00 | 86 | 1011.0 |
| 20260901111121 | 15 | 234 | 6.4 | 11.3 | 0.00 | 0.00 | 0.00 | 84 | 1011.0 |
| 20260901110343 | 15 | 215 | 8.0 | 14.5 | 0.00 | 0.00 | 0.00 | 84 | 1011.0 |
| 20260901105843 | 15 | 195 | 6.4 | 14.5 | 0.00 | 0.00 | 0.00 | 83 | 1011.0 |
| 20260901105343 | 15 | 199 | 4.8 | 11.3 | 0.00 | 0.00 | 0.00 | 80 | 1011.0 |
| 20260901104844 | 15 | 166 | 3.2 | 9.7 | 0.00 | 0.00 | 0.00 | 80 | 1011.0 |
| 20260901104339 | 15 | 216 | 3.2 | 6.4 | 0.00 | 0.00 | 0.00 | 80 | 1011.1 |
| 20260901103838 | 15 | 216 | 3.2 | 6.4 | 0.00 | 0.00 | 0.00 | 80 | 1011.0 |
| 20260901103330 | 15 | 203 | 3.2 | 6.4 | 0.00 | 0.00 | 0.00 | 80 | 1011.0 |
| 20260901102829 | 15 | 251 | 3.2 | 6.4 | 0.00 | 0.00 | 0.00 | 80 | 1011.1 |
| 20260901102330 | 15 | 221 | 1.6 | 6.4 | 0.00 | 0.00 | 0.00 | 80 | 1011.0 |
| 20260901102053 | 15 | 201 | 1.6 | 4.8 | 0.00 | 0.00 | 0.00 | 80 | 1011.0 |
| 20260901100818 | 15 | 201 | 3.2 | 11.3 | 0.00 | 0.00 | 0.00 | 80 | 1011.1 |
| 20260901100318 | 15 | 207 | 3.2 | 11.3 | 0.00 | 0.00 | 0.00 | 80 | 1011.0 |
| 20260901095819 | 15 | 205 | 3.2 | 8.0 | 0.00 | 0.00 | 0.00 | 80 | 1011.0 |
| 20260901095306 | 15 | 187 | 3.2 | 9.7 | 0.00 | 0.00 | 0.00 | 80 | 1011.0 |
| 20260901094757 | 15 | 216 | 3.2 | 9.7 | 0.00 | 0.00 | 0.00 | 80 | 1010.9 |
| 20260901094520 | 15 | 207 | 3.2 | 9.7 | 0.00 | 0.00 | 0.00 | 80 | 1011.0 |
| 20260901093752 | 15 | 177 | 4.8 | 9.7 | 0.00 | 0.00 | 0.00 | 80 | 1011.0 |
| 20260901093248 | 15 | 183 | 4.8 | 9.7 | 0.00 | 0.00 | 0.00 | 80 | 1011.0 |
| 20260901092742 | 15 | 172 | 4.8 | 8.0 | 0.00 | 0.00 | 0.00 | 80 | 1011.0 |
| 20260901092238 | 15 | 177 | 4.8 | 8.0 | 0.00 | 0.00 | 0.00 | 80 | 1011.1 |
| 20260901091732 | 15 | 181 | 4.8 | 8.0 | 0.00 | 0.00 | 0.00 | 79 | 1011.1 |
| 20260901091230 | 15 | 189 | 4.8 | 8.0 | 0.00 | 0.00 | 0.00 | 80 | 1011.1 |
| 20260901090726 | 15 | 187 | 4.8 | 8.0 | 0.00 | 0.00 | 0.00 | 80 | 1011.1 |
| 20260901090439 | 15 | 179 | 4.8 | 6.4 | 0.00 | 0.00 | 0.00 | 80 | 1011.2 |
| 20260901085723 | 15 | 131 | 3.2 | 6.4 | 0.00 | 0.00 | 0.00 | 80 | 1011.2 |
| 20260901085220 | 15 | 197 | 3.2 | 6.4 | 0.00 | 0.00 | 0.00 | 80 | 1011.2 |
| 20260901084721 | 15 | 210 | 4.8 | 12.9 | 0.00 | 0.00 | 0.00 | 80 | 1011.2 |
| 20260901084207 | 15 | 188 | 4.8 | 12.9 | 0.00 | 0.00 | 0.00 | 80 | 1011.2 |
| 20260901083708 | 15 | 211 | 4.8 | 11.3 | 0.00 | 0.00 | 0.00 | 80 | 1011.1 |
| 20260901083207 | 15 | 177 | 4.8 | 9.7 | 0.00 | 0.00 | 0.00 | 80 | 1011.1 |
| 20260901082711 | 15 | 168 | 4.8 | 11.3 | 0.00 | 0.00 | 0.00 | 80 | 1011.2 |
| 20260901082205 | 15 | 190 | 6.4 | 11.3 | 0.00 | 0.00 | 0.00 | 80 | 1011.1 |
| 20260901081706 | 15 | 187 | 4.8 | 11.3 | 0.00 | 0.00 | 0.00 | 80 | 1011.1 |
| 20260901081204 | 15 | 183 | 3.2 | 9.7 | 0.00 | 0.00 | 0.00 | 80 | 1011.1 |
| 20260901080704 | 15 | 193 | 3.2 | 9.7 | 0.00 | 0.00 | 0.00 | 80 | 1011.0 |
| 20260901080205 | 15 | 179 | 3.2 | 6.4 | 0.00 | 0.00 | 0.00 | 80 | 1011.0 |
| 20260901075654 | 15 | 211 | 3.2 | 9.7 | 0.00 | 0.00 | 0.00 | 81 | 1011.0 |
| 20260901075150 | 15 | 197 | 4.8 | 9.7 | 0.00 | 0.00 | 0.00 | 80 | 1010.9 |
| 20260901074647 | 15 | 188 | 4.8 | 8.0 | 0.00 | 0.00 | 0.00 | 80 | 1010.9 |
| 20260901074410 | 15 | 165 | 4.8 | 8.0 | 0.00 | 0.00 | 0.00 | 81 | 1010.8 |
| 20260901073638 | 15 | 172 | 4.8 | 8.0 | 0.00 | 0.00 | 0.00 | 80 | 1010.8 |
| 20260901073347 | 15 | 151 | 4.8 | 8.0 | 0.00 | 0.00 | 0.00 | 81 | 1010.8 |
| 20260901072607 | 15 | 172 | 4.8 | 8.0 | 0.00 | 0.00 | 0.00 | 81 | 1010.8 |
| 20260901072102 | 15 | 158 | 4.8 | 9.7 | 0.00 | 0.00 | 0.00 | 81 | 1010.8 |
| 20260901071825 | 15 | 186 | 6.4 | 9.7 | 0.00 | 0.00 | 0.00 | 81 | 1010.8 |
| 20260901071101 | 15 | 161 | 6.4 | 11.3 | 0.00 | 0.00 | 0.00 | 81 | 1010.8 |
| 20260901070553 | 15 | 165 | 6.4 | 11.3 | 0.00 | 0.00 | 0.00 | 82 | 1010.8 |
| 20260901070316 | 14 | 172 | 4.8 | 11.3 | 0.00 | 0.00 | 0.00 | 82 | 1010.8 |
| 20260901065553 | 14 | 188 | 4.8 | 11.3 | 0.00 | 0.00 | 0.00 | 82 | 1010.9 |
| 20260901065053 | 14 | 170 | 4.8 | 11.3 | 0.00 | 0.00 | 0.00 | 82 | 1010.9 |
| 20260901064549 | 14 | 182 | 4.8 | 11.3 | 0.00 | 0.00 | 0.00 | 83 | 1010.8 |
| 20260901064050 | 14 | 178 | 6.4 | 9.7 | 0.00 | 0.00 | 0.00 | 83 | 1010.8 |
| 20260901063548 | 14 | 158 | 4.8 | 9.7 | 0.00 | 0.00 | 0.00 | 83 | 1010.9 |
| 20260901063049 | 14 | 175 | 4.8 | 8.0 | 0.00 | 0.00 | 0.00 | 83 | 1010.8 |
| 20260901062549 | 14 | 147 | 4.8 | 9.7 | 0.00 | 0.00 | 0.00 | 83 | 1010.9 |
| 20260901062053 | 14 | 141 | 4.8 | 9.7 | 0.00 | 0.00 | 0.00 | 83 | 1010.9 |
| 20260901061546 | 14 | 193 | 4.8 | 12.9 | 0.00 | 0.00 | 0.00 | 83 | 1010.9 |
| 20260901061045 | 14 | 198 | 6.4 | 12.9 | 0.00 | 0.00 | 0.00 | 82 | 1011.0 |
| 20260901060543 | 14 | 187 | 6.4 | 14.5 | 0.00 | 0.00 | 0.00 | 82 | 1011.0 |
| 20260901060042 | 14 | 216 | 6.4 | 14.5 | 0.00 | 0.00 | 0.00 | 83 | 1010.9 |
| 20260901055806 | 14 | 194 | 8.0 | 12.9 | 0.00 | 0.00 | 0.00 | 83 | 1010.9 |
| 20260901055040 | 14 | 191 | 6.4 | 12.9 | 0.00 | 0.00 | 0.00 | 82 | 1011.0 |
| 20260901054541 | 14 | 202 | 6.4 | 14.5 | 0.00 | 0.00 | 0.00 | 82 | 1011.0 |
| 20260901054301 | 14 | 233 | 6.4 | 14.5 | 0.00 | 0.00 | 0.00 | 82 | 1011.0 |
| 20260901053758 | 14 | 228 | 6.4 | 14.5 | 0.00 | 0.00 | 0.00 | 82 | 1011.0 |
| 20260901053038 | 14 | 259 | 8.0 | 14.5 | 0.00 | 0.00 | 0.00 | 82 | 1011.0 |
| 20260901052537 | 15 | 251 | 8.0 | 14.5 | 0.00 | 0.00 | 0.00 | 82 | 1010.9 |
| 20260901052038 | 15 | 216 | 8.0 | 14.5 | 0.00 | 0.00 | 0.00 | 82 | 1010.9 |
| 20260901051536 | 15 | 202 | 8.0 | 14.5 | 0.00 | 0.00 | 0.00 | 81 | 1010.8 |
| 20260901051036 | 15 | 243 | 9.7 | 16.1 | 0.00 | 0.00 | 0.00 | 81 | 1010.9 |
| 20260901050532 | 15 | 174 | 8.0 | 16.1 | 0.00 | 0.00 | 0.00 | 81 | 1010.8 |
| 20260901050035 | 15 | 244 | 8.0 | 14.5 | 0.00 | 0.00 | 0.00 | 81 | 1010.9 |
| 20260901045532 | 15 | 216 | 9.7 | 19.3 | 0.00 | 0.00 | 0.00 | 81 | 1010.8 |
| 20260901045255 | 15 | 171 | 11.3 | 19.3 | 0.00 | 0.00 | 0.00 | 81 | 1010.6 |
| 20260901044532 | 15 | 245 | 12.9 | 20.9 | 0.00 | 0.00 | 0.00 | 80 | 1010.5 |
| 20260901044253 | 15 | 247 | 16.1 | 29.0 | 0.00 | 0.00 | 0.00 | 80 | 1010.6 |
| 20260901043532 | 15 | 269 | 17.7 | 29.0 | 0.00 | 0.00 | 0.00 | 80 | 1010.4 |
| 20260901043032 | 15 | 236 | 19.3 | 27.4 | 0.00 | 0.00 | 0.00 | 79 | 1010.1 |
| 20260901042532 | 15 | 244 | 17.7 | 24.1 | 0.00 | 0.00 | 0.00 | 79 | 1010.0 |
| 20260901042257 | 15 | 253 | 14.5 | 22.5 | 0.00 | 0.00 | 0.00 | 78 | 1010.2 |
| 20260901041533 | 15 | 259 | 12.9 | 20.9 | 0.00 | 0.00 | 0.00 | 78 | 1010.1 |
| 20260901041034 | 16 | 237 | 16.1 | 29.0 | 0.00 | 0.00 | 0.00 | 77 | 1010.1 |
| 20260901040533 | 16 | 230 | 19.3 | 29.0 | 0.00 | 0.00 | 0.00 | 76 | 1009.9 |
| 20260901040026 | 16 | 253 | 16.1 | 27.4 | 0.00 | 0.00 | 0.00 | 76 | 1009.9 |
| 20260901035528 | 16 | 236 | 11.3 | 20.9 | 0.00 | 0.00 | 0.00 | 74 | 1009.8 |
| 20260901035026 | 17 | 255 | 9.7 | 20.9 | 0.00 | 0.00 | 0.00 | 73 | 1009.8 |
| 20260901034517 | 17 | 259 | 8.0 | 19.3 | 0.00 | 0.00 | 0.00 | 72 | 1009.6 |
| 20260901034019 | 17 | 307 | 6.4 | 19.3 | 0.00 | 0.00 | 0.00 | 71 | 1009.3 |
| 20260901033518 | 17 | 251 | 8.0 | 19.3 | 0.00 | 0.00 | 0.00 | 71 | 1009.2 |
| 20260901033238 | 17 | 261 | 6.4 | 19.3 | 0.00 | 0.00 | 0.00 | 70 | 1009.1 |
| 20260901032515 | 17 | 248 | 8.0 | 22.5 | 0.00 | 0.00 | 0.00 | 69 | 1008.9 |
| 20260901032015 | 18 | 235 | 12.9 | 24.1 | 0.00 | 0.00 | 0.00 | 69 | 1008.8 |
| 20260901031736 | 18 | 245 | 17.7 | 27.4 | 0.00 | 0.00 | 0.00 | 68 | 1008.5 |
| 20260901031012 | 18 | 247 | 20.9 | 30.6 | 0.00 | 0.00 | 0.00 | 67 | 1008.3 |
| 20260901030510 | 18 | 241 | 20.9 | 30.6 | 0.00 | 0.00 | 0.00 | 66 | 1008.3 |
| 20260901030007 | 19 | 243 | 20.9 | 35.4 | 0.00 | 0.00 | 0.00 | 66 | 1008.2 |
| 20260901025509 | 19 | 222 | 20.9 | 35.4 | 0.00 | 0.00 | 0.00 | 65 | 1008.1 |
| 20260901025006 | 20 | 259 | 22.5 | 33.8 | 0.00 | 0.00 | 0.00 | 64 | 1008.2 |
| 20260901024457 | 20 | 238 | 22.5 | 33.8 | 0.00 | 0.00 | 0.00 | 63 | 1008.1 |
| 20260901023956 | 20 | 263 | 20.9 | 32.2 | 0.00 | 0.00 | 0.00 | 62 | 1008.0 |
| 20260901023454 | 20 | 257 | 22.5 | 33.8 | 0.00 | 0.00 | 0.00 | 62 | 1007.9 |
| 20260901022952 | 21 | 256 | 22.5 | 33.8 | 0.00 | 0.00 | 0.00 | 60 | 1007.9 |
| 20260901022945 | 21 | 251 | 20.9 | 32.2 | 0.00 | 0.00 | 0.00 | 60 | 1007.9 |
| 20260901021953 | 21 | 254 | 22.5 | 32.2 | 0.00 | 0.00 | 0.00 | 59 | 1007.8 |
| 20260901021450 | 21 | 262 | 22.5 | 32.2 | 0.00 | 0.00 | 0.00 | 58 | 1007.7 |
| 20260901020950 | 21 | 239 | 20.9 | 30.6 | 0.00 | 0.00 | 0.00 | 58 | 1007.6 |
| 20260901020449 | 21 | 223 | 20.9 | 30.6 | 0.00 | 0.00 | 0.00 | 58 | 1007.6 |
| 20260901020213 | 22 | 245 | 20.9 | 32.2 | 0.00 | 0.00 | 0.00 | 57 | 1007.5 |
| 20260901015706 | 22 | 219 | 20.9 | 32.2 | 0.00 | 0.00 | 0.00 | 57 | 1007.4 |
| 20260901014946 | 22 | 281 | 20.9 | 29.0 | 0.00 | 0.00 | 0.00 | 57 | 1007.5 |
| 20260901014445 | 22 | 253 | 19.3 | 29.0 | 0.00 | 0.00 | 0.00 | 56 | 1007.4 |
| 20260901013945 | 22 | 266 | 16.1 | 27.4 | 0.00 | 0.00 | 0.00 | 56 | 1007.4 |
| 20260901013446 | 23 | 281 | 16.1 | 27.4 | 0.00 | 0.00 | 0.00 | 56 | 1007.4 |
| 20260901012944 | 23 | 273 | 16.1 | 30.6 | 0.00 | 0.00 | 0.00 | 55 | 1007.3 |
| 20260901012443 | 24 | 249 | 17.7 | 30.6 | 0.00 | 0.00 | 0.00 | 54 | 1007.2 |
| 20260901012204 | 24 | 281 | 17.7 | 27.4 | 0.00 | 0.00 | 0.00 | 53 | 1007.3 |
| 20260901011442 | 24 | 256 | 19.3 | 27.4 | 0.00 | 0.00 | 0.00 | 53 | 1007.3 |
| 20260901010941 | 25 | 241 | 17.7 | 30.6 | 0.00 | 0.00 | 0.00 | 52 | 1007.3 |
| 20260901010439 | 25 | 253 | 17.7 | 30.6 | 0.00 | 0.00 | 0.00 | 52 | 1007.2 |
| 20260901005939 | 25 | 281 | 17.7 | 30.6 | 0.00 | 0.00 | 0.00 | 52 | 1007.2 |
| 20260901005437 | 25 | 252 | 19.3 | 32.2 | 0.00 | 0.00 | 0.00 | 51 | 1007.2 |
| 20260901004939 | 26 | 247 | 19.3 | 32.2 | 0.00 | 0.00 | 0.00 | 50 | 1007.0 |
| 20260901004440 | 26 | 237 | 17.7 | 25.7 | 0.00 | 0.00 | 0.00 | 50 | 1007.1 |
| 20260901003938 | 26 | 263 | 17.7 | 25.7 | 0.00 | 0.00 | 0.00 | 50 | 1007.1 |
| 20260901003437 | 26 | 264 | 19.3 | 32.2 | 0.00 | 0.00 | 0.00 | 49 | 1007.0 |
| 20260901003158 | 26 | 281 | 20.9 | 35.4 | 0.00 | 0.00 | 0.00 | 49 | 1007.0 |
| 20260901002433 | 26 | 229 | 22.5 | 35.4 | 0.00 | 0.00 | 0.00 | 49 | 1006.9 |
| 20260901001934 | 27 | 253 | 22.5 | 37.0 | 0.00 | 0.00 | 0.00 | 48 | 1006.8 |
| 20260901001434 | 27 | 243 | 20.9 | 37.0 | 0.00 | 0.00 | 0.00 | 47 | 1006.8 |
| 20260901000934 | 28 | 245 | 20.9 | 32.2 | 0.00 | 0.00 | 0.00 | 46 | 1006.7 |
| 20260901000652 | 28 | 262 | 19.3 | 32.2 | 0.00 | 0.00 | 0.00 | 45 | 1006.7 |
| 20260831235931 | 28 | 259 | 14.5 | 32.2 | 0.00 | 0.00 | 0.00 | 43 | 1006.7 |
| 20260831235432 | 30 | 291 | 12.9 | 25.7 | 0.00 | 0.00 | 0.00 | 42 | 1006.6 |
| 20260831235149 | 29 | 281 | 9.7 | 20.9 | 0.00 | 0.00 | 0.00 | 42 | 1006.6 |
| 20260831234652 | 30 | 291 | 9.7 | 22.5 | 0.00 | 0.00 | 0.00 | 42 | 1006.6 |
| 20260831233932 | 30 | 332 | 11.3 | 22.5 | 0.00 | 0.00 | 0.00 | 41 | 1006.6 |
| 20260831233425 | 30 | 258 | 9.7 | 19.3 | 0.00 | 0.00 | 0.00 | 40 | 1006.6 |
| 20260831232923 | 30 | 309 | 9.7 | 17.7 | 0.00 | 0.00 | 0.00 | 42 | 1006.7 |
| 20260831232424 | 29 | 307 | 8.0 | 17.7 | 0.00 | 0.00 | 0.00 | 43 | 1006.7 |
| 20260831231916 | 30 | 332 | 6.4 | 16.1 | 0.00 | 0.00 | 0.00 | 43 | 1006.7 |
| 20260831231415 | 30 | 297 | 8.0 | 16.1 | 0.00 | 0.00 | 0.00 | 42 | 1006.7 |
| 20260831230914 | 29 | 312 | 8.0 | 16.1 | 0.00 | 0.00 | 0.00 | 42 | 1006.8 |
| 20260831230627 | 29 | 249 | 6.4 | 16.1 | 0.00 | 0.00 | 0.00 | 43 | 1006.9 |
| 20260831225905 | 29 | 338 | 6.4 | 12.9 | 0.00 | 0.00 | 0.00 | 42 | 1007.0 |
| 20260831225407 | 29 | 0 | 6.4 | 14.5 | 0.00 | 0.00 | 0.00 | 45 | 1007.0 |
| 20260831224907 | 29 | 343 | 6.4 | 14.5 | 0.00 | 0.00 | 0.00 | 42 | 1007.0 |
| 20260831224402 | 29 | 304 | 4.8 | 14.5 | 0.00 | 0.00 | 0.00 | 46 | 1007.0 |
| 20260831224128 | 28 | 59 | 6.4 | 14.5 | 0.00 | 0.00 | 0.00 | 42 | 1007.1 |
| 20260831223403 | 28 | 346 | 6.4 | 19.3 | 0.00 | 0.00 | 0.00 | 44 | 1007.1 |
| 20260831222901 | 28 | 353 | 6.4 | 19.3 | 0.00 | 0.00 | 0.00 | 44 | 1007.2 |
| 20260831222402 | 28 | 328 | 6.4 | 16.1 | 0.00 | 0.00 | 0.00 | 45 | 1007.3 |
| 20260831222124 | 28 | 18 | 6.4 | 14.5 | 0.00 | 0.00 | 0.00 | 45 | 1007.2 |
| 20260831221401 | 28 | 324 | 8.0 | 16.1 | 0.00 | 0.00 | 0.00 | 47 | 1007.5 |
| 20260831220901 | 28 | 299 | 8.0 | 16.1 | 0.00 | 0.00 | 0.00 | 46 | 1007.5 |
| 20260831220402 | 28 | 291 | 6.4 | 16.1 | 0.00 | 0.00 | 0.00 | 46 | 1007.6 |
| 20260831215859 | 28 | 3 | 6.4 | 12.9 | 0.00 | 0.00 | 0.00 | 46 | 1007.6 |
| 20260831215400 | 27 | 8 | 6.4 | 12.9 | 0.00 | 0.00 | 0.00 | 49 | 1007.8 |
| 20260831215340 | 27 | 313 | 6.4 | 14.5 | 0.00 | 0.00 | 0.00 | 47 | 1007.8 |
| 20260831214357 | 27 | 273 | 6.4 | 14.5 | 0.00 | 0.00 | 0.00 | 48 | 1007.9 |
| 20260831213857 | 27 | 310 | 6.4 | 14.5 | 0.00 | 0.00 | 0.00 | 48 | 1007.7 |
| 20260831213357 | 27 | 14 | 4.8 | 12.9 | 0.00 | 0.00 | 0.00 | 47 | 1007.9 |
| 20260831212855 | 26 | 281 | 4.8 | 12.9 | 0.00 | 0.00 | 0.00 | 46 | 1008.0 |
| 20260831212359 | 26 | 324 | 6.4 | 12.9 | 0.00 | 0.00 | 0.00 | 51 | 1008.1 |
| 20260831211842 | 26 | 291 | 6.4 | 19.3 | 0.00 | 0.00 | 0.00 | 47 | 1008.1 |
| 20260831211340 | 26 | 300 | 3.2 | 19.3 | 0.00 | 0.00 | 0.00 | 49 | 1008.2 |
| 20260831210832 | 26 | 170 | 3.2 | 11.3 | 0.00 | 0.00 | 0.00 | 48 | 1008.1 |
| 20260831210554 | 26 | 291 | 4.8 | 11.3 | 0.00 | 0.00 | 0.00 | 47 | 1008.2 |
| 20260831205834 | 25 | 18 | 3.2 | 11.3 | 0.00 | 0.00 | 0.00 | 48 | 1008.2 |
| 20260831205551 | 25 | 35 | 3.2 | 12.9 | 0.00 | 0.00 | 0.00 | 49 | 1008.2 |
| 20260831204828 | 25 | 342 | 4.8 | 12.9 | 0.00 | 0.00 | 0.00 | 51 | 1008.3 |
| 20260831204325 | 25 | 39 | 4.8 | 11.3 | 0.00 | 0.00 | 0.00 | 48 | 1008.3 |
| 20260831204047 | 26 | 320 | 6.4 | 16.1 | 0.00 | 0.00 | 0.00 | 49 | 1008.4 |
| 20260831203323 | 25 | 317 | 6.4 | 16.1 | 0.00 | 0.00 | 0.00 | 53 | 1008.3 |
| 20260831202821 | 26 | 60 | 4.8 | 11.3 | 0.00 | 0.00 | 0.00 | 51 | 1008.5 |
| 20260831202534 | 25 | 339 | 4.8 | 12.9 | 0.00 | 0.00 | 0.00 | 54 | 1008.7 |
| 20260831201818 | 24 | 64 | 4.8 | 12.9 | 0.00 | 0.00 | 0.00 | 50 | 1008.7 |
| 20260831201534 | 24 | 36 | 3.2 | 11.3 | 0.00 | 0.00 | 0.00 | 50 | 1008.6 |
| 20260831200812 | 25 | 106 | 3.2 | 11.3 | 0.00 | 0.00 | 0.00 | 50 | 1008.6 |
| 20260831200754 | 25 | 347 | 4.8 | 11.3 | 0.00 | 0.00 | 0.00 | 53 | 1008.8 |
| 20260831195811 | 23 | 342 | 3.2 | 12.9 | 0.00 | 0.00 | 0.00 | 54 | 1008.9 |
| 20260831195313 | 23 | 344 | 3.2 | 12.9 | 0.00 | 0.00 | 0.00 | 54 | 1009.0 |
| 20260831194810 | 23 | 274 | 4.8 | 14.5 | 0.00 | 0.00 | 0.00 | 54 | 1009.1 |
| 20260831194308 | 23 | 96 | 3.2 | 14.5 | 0.00 | 0.00 | 0.00 | 54 | 1009.2 |
| 20260831193809 | 23 | 316 | 3.2 | 11.3 | 0.00 | 0.00 | 0.00 | 57 | 1009.1 |
| 20260831193307 | 23 | 335 | 3.2 | 14.5 | 0.00 | 0.00 | 0.00 | 57 | 1009.2 |
| 20260831193040 | 22 | 52 | 4.8 | 14.5 | 0.00 | 0.00 | 0.00 | 56 | 1009.3 |
| 20260831192306 | 22 | 41 | 4.8 | 12.9 | 0.00 | 0.00 | 0.00 | 57 | 1009.4 |
| 20260831192028 | 22 | 49 | 3.2 | 11.3 | 0.00 | 0.00 | 0.00 | 58 | 1009.5 |
| 20260831191303 | 22 | 59 | 4.8 | 11.3 | 0.00 | 0.00 | 0.00 | 58 | 1009.6 |
| 20260831190758 | 22 | 22 | 4.8 | 14.5 | 0.00 | 0.00 | 0.00 | 60 | 1009.7 |
| 20260831190300 | 22 | 317 | 4.8 | 14.5 | 0.00 | 0.00 | 0.00 | 57 | 1009.7 |
| 20260831185754 | 21 | 359 | 3.2 | 12.9 | 0.00 | 0.00 | 0.00 | 63 | 1009.7 |
| 20260831185253 | 21 | 286 | 3.2 | 12.9 | 0.00 | 0.00 | 0.00 | 60 | 1009.9 |
| 20260831184751 | 21 | 349 | 3.2 | 11.3 | 0.00 | 0.00 | 0.00 | 63 | 1009.8 |
| 20260831184516 | 21 | 56 | 4.8 | 12.9 | 0.00 | 0.00 | 0.00 | 64 | 1009.9 |
| 20260831184011 | 21 | 20 | 6.4 | 14.5 | 0.00 | 0.00 | 0.00 | 64 | 1009.9 |
| 20260831183252 | 21 | 320 | 3.2 | 14.5 | 0.00 | 0.00 | 0.00 | 65 | 1009.9 |
| 20260831183013 | 20 | 237 | 3.2 | 14.5 | 0.00 | 0.00 | 0.00 | 63 | 1010.0 |
| 20260831182251 | 21 | 333 | 4.8 | 14.5 | 0.00 | 0.00 | 0.00 | 66 | 1010.0 |
| 20260831182013 | 20 | 16 | 6.4 | 14.5 | 0.00 | 0.00 | 0.00 | 66 | 1010.0 |
| 20260831181251 | 20 | 53 | 6.4 | 14.5 | 0.00 | 0.00 | 0.00 | 65 | 1009.9 |
| 20260831181026 | 20 | 359 | 4.8 | 14.5 | 0.00 | 0.00 | 0.00 | 68 | 1010.0 |
| 20260831180254 | 20 | 28 | 4.8 | 11.3 | 0.00 | 0.00 | 0.00 | 65 | 1010.1 |
| 20260831175744 | 20 | 12 | 4.8 | 12.9 | 0.00 | 0.00 | 0.00 | 66 | 1010.2 |
| 20260831175243 | 19 | 332 | 6.4 | 12.9 | 0.00 | 0.00 | 0.00 | 67 | 1010.2 |
| 20260831174743 | 19 | 52 | 4.8 | 12.9 | 0.00 | 0.00 | 0.00 | 70 | 1010.3 |
| 20260831174243 | 18 | 37 | 4.8 | 12.9 | 0.00 | 0.00 | 0.00 | 67 | 1010.3 |
| 20260831174007 | 19 | 0 | 4.8 | 12.9 | 0.00 | 0.00 | 0.00 | 66 | 1010.3 |
| 20260831173504 | 19 | 308 | 4.8 | 14.5 | 0.00 | 0.00 | 0.00 | 69 | 1010.2 |